Location: Unspecified
(0.0000°N, 0.0000°E)
Time: 05:31:31
(UTC+01:00)

Cosmos 2369 Rocket - Visible Passes

Search period start: 20 December 2014 00:00
Search period end: 30 December 2014 00:00
Orbit: 827 x 855 km, 71.0° (Epoch: 18 December)

Date Brightness Start Highest point End Pass type
(mag) Time Alt. Az. Time Alt. Az. Time Alt. Az.
26 Dec 4.9 22:06:48 10° S 22:07:00 11° S 22:07:00 11° S visible
27 Dec 4.5 21:51:33 10° S 21:52:33 16° S 21:52:33 16° S visible
28 Dec 4.1 21:36:18 10° S 21:38:10 22° S 21:38:10 22° S visible
29 Dec 3.5 21:21:04 10° S 21:23:51 30° S 21:23:51 30° S visible
